Temperature
15 15 15 14 14 14 14 14 13 13 13 12 12 12 12 12 11 11 11 11 11 11 11 11 11 11 11 11 11 10 10 10 10 10 10 10 10 10 10 10 10 10 10
15 15 14 14 14 14 14 13 13 13 13 12 12 12 12 11 11 11 11 11 11 11 11 11 11 10 10 10 10 10 10 10 10 10 10 10 10 10 10 10 10 10 10
15 14 14 14 14 14 14 13 13 13 13 12 12 12 12 11 11 11 11 11 11 11 10 10 10 10 10 10 10 10 10 10 10 10 10 9 9 9 9 9 9 10 10
14 14 14 14 14 13 13 13 13 13 12 12 12 12 11 11 11 11 11 10 10 10 10 10 10 10 10 10 10 10 9 9 9 9 9 9 9 9 9 9 9 9 9
14 14 14 14 13 13 13 13 13 12 12 12 12 11 11 11 11 11 11 10 10 10 10 10 10 10 10 10 9 9 9 9 9 9 9 8 8 8 8 8 8 9 8
14 14 13 13 13 13 13 13 12 12 12 12 11 11 11 11 11 11 10 10 10 10 10 10 9 9 9 9 9 9 9 9 9 8 8 8 8 8 8 8 8 8 8
14 13 13 13 13 12 12 12 12 12 12 11 11 11 11 10 10 10 10 10 10 9 9 9 9 9 9 9 9 9 8 8 8 8 8 8 8 8 8 8 8 8 8
13 13 13 12 12 12 12 12 12 11 11 11 11 11 10 10 10 10 10 9 9 9 9 9 9 9 9 9 8 8 8 8 8 8 8 7 7 7 7 7 7 7 7
13 13 12 12 12 12 11 11 11 11 11 11 11 10 10 10 10 9 9 9 9 9 8 8 8 8 8 8 8 8 8 7 7 7 7 7 7 7 7 7 7 7 7
13 13 12 12 12 11 11 11 11 11 11 10 10 10 10 10 9 9 9 9 8 8 8 8 8 8 8 8 8 7 7 7 7 7 7 7 7 7 7 6 6 6 6
12 12 12 12 11 11 11 11 10 10 10 10 10 10 9 9 9 9 8 8 8 8 7 8 7 7 7 7 7 7 7 7 7 7 6 6 6 6 6 6 6 6 6
12 12 11 11 11 10 10 10 10 10 10 9 9 9 9 9 8 8 8 8 8 7 7 7 7 7 7 7 7 7 6 6 6 6 6 6 6 6 6 6 6 6 6
11 11 11 11 10 10 10 10 9 9 9 9 9 9 8 8 8 8 8 7 7 7 7 6 6 6 6 6 6 6 6 6 6 6 6 6 6 6 5 5 5 5 5
11 10 10 10 10 9 9 9 9 9 9 8 8 8 8 8 8 8 7 7 7 6 6 6 6 6 6 5 5 5 5 5 5 5 5 5 5 5 5 5 5 5 5
10 10 9 9 9 9 9 9 8 8 8 8 8 8 8 8 8 7 7 7 6 6 6 5 5 5 5 5 5 5 5 5 5 5 5 5 5 5 4 4 4 4 4
9 9 9 9 9 9 8 8 8 8 7 7 7 7 7 7 7 7 6 6 6 5 5 5 5 4 4 4 4 4 4 4 4 4 4 4 4 4 4 4 4 4 4
9 9 8 8 8 8 8 8 8 7 7 7 7 7 7 7 6 6 6 6 5 5 5 4 4 4 4 4 3 3 3 4 4 4 3 4 4 4 4 4 4 4 4
8 8 8 8 8 8 7 7 7 7 7 7 6 6 6 6 6 6 5 5 5 4 4 4 4 4 3 3 3 3 3 3 3 3 3 3 3 3 3 3 3 3 3
7 7 7 7 7 7 7 7 7 6 6 6 6 5 5 5 5 5 5 5 4 4 4 4 4 3 3 3 3 3 3 3 3 3 3 3 3 3 3 3 3 3 3
7 7 7 7 7 7 7 6 6 6 5 5 5 5 5 5 5 4 4 4 4 4 4 3 3 3 3 3 3 3 2 2 2 2 2 2 2 2 2 2 2 2 2
7 6 6 6 6 6 6 6 6 5 5 5 5 5 4 4 4 4 4 4 4 3 3 3 3 3 3 2 2 2 2 2 2 2 2 2 2 2 2 2 2 2 2
6 6 6 6 6 6 5 5 5 5 5 4 4 4 4 4 3 3 3 3 3 3 3 3 3 2 2 2 2 2 2 2 2 2 2 2 2 2 2 2 1 1 1
6 5 5 5 5 5 5 5 4 4 4 4 3 3 3 3 3 3 3 3 3 3 3 2 2 2 2 2 2 2 2 2 2 2 2 2 2 2 1 1 1 1 1
5 5 5 4 4 4 4 4 4 4 3 3 3 3 3 3 3 2 2 2 2 2 2 2 2 2 2 2 2 2 2 2 2 1 1 1 1 1 1 1 1 1 1
4 4 4 4 4 4 4 3 3 3 3 3 3 3 3 2 2 2 2 2 2 2 2 2 2 2 2 1 1 1 1 1 1 1 1 1 1 1 1 1 1 0 0
4 4 3 3 3 3 3 3 3 3 3 3 2 2 2 2 2 2 2 2 2 2 2 2 2 2 1 1 1 1 1 1 1 1 1 1 1 1 1 0 0 0 0
Wind_Speed
5 5 4 4 4 4 3 3 3 3 3 3 3 2 3 3 2 2 1 1 1 1 1 0 1 1 1 0 1 1 0 1 1 2 1 1 2 2 1 1 0 2 3
5 5 5 5 4 4 4 4 3 2 2 3 3 3 3 3 2 2 1 1 1 1 1 0 0 1 1 0 0 1 0 0 1 1 2 1 1 1 0 1 1 1 2
5 5 5 5 5 4 4 4 3 2 1 2 3 3 2 2 2 2 2 2 2 2 1 1 1 1 1 0 1 1 1 1 0 1 2 1 1 1 1 2 2 1 2
5 5 5 5 5 4 4 4 4 3 2 2 2 3 2 2 2 2 1 1 1 1 1 1 1 1 1 1 0 0 0 0 1 1 1 2 1 2 1 1 2 2 2
6 6 5 5 5 5 4 4 4 4 3 3 2 2 2 2 1 1 1 0 1 1 1 1 2 2 2 1 1 0 0 0 1 1 1 1 1 1 1 2 2 3 3
6 6 5 5 4 4 4 4 3 3 3 3 3 2 2 1 2 2 1 1 0 1 1 1 1 1 1 1 0 0 1 1 1 1 1 2 2 2 2 2 2 2 3
5 5 5 5 5 5 5 4 4 3 3 3 3 2 2 2 3 2 1 0 0 0 1 1 0 0 0 0 1 1 1 2 2 2 2 3 3 3 2 2 2 2 3
5 5 4 5 4 4 4 4 4 3 3 3 3 2 2 2 2 2 2 1 1 1 1 1 1 0 0 0 1 1 2 3 3 3 3 3 2 2 2 2 3 2 3
4 4 4 5 4 4 4 3 3 3 3 3 3 3 2 2 3 3 2 2 1 2 1 0 0 1 1 2 0 1 1 2 3 4 4 3 3 3 2 1 1 1 2
3 4 4 4 4 4 4 3 2 2 3 3 2 3 3 2 3 4 4 2 2 1 1 1 2 1 2 2 1 1 2 2 2 2 2 2 2 3 4 3 3 2 1
2 3 4 4 4 3 3 2 2 2 3 2 2 2 2 2 3 3 3 2 2 1 1 0 1 2 2 1 1 1 2 3 2 2 1 1 1 1 1 2 3 2 2
3 3 3 3 3 3 3 3 3 3 3 3 2 2 2 2 3 3 4 3 1 1 1 1 1 1 2 2 2 3 3 3 1 1 1 1 1 1 2 2 2 2 3
3 3 3 3 3 3 3 4 3 3 3 3 3 2 1 1 3 4 3 3 2 1 1 1 1 3 3 2 2 3 2 1 0 1 1 2 1 1 1 1 1 1 1
2 3 3 3 3 3 2 3 3 3 3 3 2 2 2 1 2 2 2 2 1 1 1 1 2 2 2 2 2 2 1 1 1 1 1 2 1 1 1 0 1 1 1
2 2 2 2 3 2 2 1 2 2 2 2 2 2 2 2 2 2 2 1 1 1 0 1 1 1 1 1 1 1 1 0 1 1 1 1 1 1 1 0 0 0 0
2 2 2 2 2 2 2 1 1 2 3 3 2 2 1 3 3 3 2 1 1 2 1 1 2 2 2 2 1 1 1 1 1 1 1 1 1 1 1 1 0 1 1
2 2 2 2 3 3 3 4 2 1 2 2 2 3 3 4 3 3 2 1 2 2 1 2 2 2 2 2 1 1 1 1 1 1 1 1 1 1 1 0 0 0 1
2 3 3 3 4 4 4 4 3 3 2 1 2 4 5 5 4 3 2 1 0 1 2 2 2 2 1 2 2 1 1 1 0 1 1 1 1 1 1 0 0 0 1
2 2 3 3 3 4 4 3 3 3 3 2 2 2 4 4 4 3 3 2 2 2 2 2 2 2 1 1 1 1 1 1 1 1 1 1 1 0 0 0 1 1 1
2 3 3 3 3 3 3 3 3 4 3 3 4 3 3 3 2 2 3 2 3 3 2 2 2 2 2 2 1 1 1 1 1 1 1 1 1 0 1 1 1 1 1
2 3 4 3 3 3 3 4 4 4 4 4 3 4 5 4 4 4 3 3 3 3 3 2 2 2 1 1 1 2 2 2 2 2 1 1 1 1 1 1 1 1 1
2 2 2 3 3 3 3 3 3 3 3 3 3 3 6 4 3 3 4 4 3 3 2 2 2 2 2 2 2 2 2 2 2 2 2 2 2 2 1 1 1 1 1
2 2 2 2 2 3 3 2 3 3 3 3 3 3 4 3 3 3 3 3 2 2 1 2 2 2 1 1 2 1 2 2 2 2 2 2 2 2 2 2 2 2 2
2 2 2 2 2 2 2 2 2 3 3 3 3 3 3 3 3 3 3 2 2 2 2 2 2 2 2 1 1 1 1 1 1 1 2 2 2 2 2 2 2 3 2
2 2 2 2 2 2 2 2 2 2 2 3 3 3 3 3 3 3 2 2 2 2 2 2 2 2 3 3 2 2 2 1 1 1 2 1 2 2 2 2 3 3 3
1 2 1 1 1 2 2 2 2 2 2 2 2 2 2 2 2 2 2 2 2 2 2 2 2 2 2 2 3 4 3 2 2 3 2 1 1 2 2 2 3 3 3
Wind_Direction
176 170 167 161 156 151 150 151 155 155 161 174 179 176 159 160 170 156 179 172 209 213 221 231 261 124 99 34 8 13 23 126 230 297 324 347 7 28 32 343 227 207 216
175 171 172 166 162 160 158 151 157 177 179 173 167 175 172 158 169 155 185 210 222 226 235 232 340 60 78 28 37 345 299 190 166 269 301 324 329 307 257 284 280 275 217
168 170 174 168 169 174 166 163 174 185 186 181 164 178 173 164 170 168 182 204 219 215 195 150 143 108 117 97 66 356 315 334 169 224 280 294 306 311 319 304 296 282 278
168 174 184 179 174 177 171 169 173 179 191 184 175 177 177 176 181 189 179 201 234 193 136 132 130 123 125 159 184 230 286 318 256 237 256 276 289 311 351 316 309 299 286
174 181 189 181 175 173 171 168 173 180 180 170 162 160 164 169 174 146 156 231 228 137 106 83 76 77 66 70 58 148 170 253 265 248 259 284 295 315 302 291 291 301 288
178 184 180 178 177 172 169 167 173 169 167 162 165 163 154 144 113 115 117 136 216 161 160 145 136 105 67 33 55 116 140 191 219 223 253 258 274 269 279 287 289 300 286
180 183 181 179 179 181 175 166 170 176 170 165 164 153 157 148 131 130 121 104 81 235 182 154 260 347 92 260 281 255 244 241 229 208 228 249 254 253 245 266 278 268 259
183 182 178 172 174 173 170 176 177 172 170 171 169 172 172 176 168 179 206 198 263 273 255 208 188 76 339 359 267 242 237 234 233 232 237 255 250 239 220 227 244 274 277
180 177 171 161 162 164 171 178 170 166 167 167 169 180 186 188 193 200 200 206 221 253 268 340 91 155 13 34 348 279 281 283 263 249 244 252 267 250 228 181 284 303 291
180 164 153 155 165 172 171 165 156 157 169 170 178 181 177 178 198 203 208 203 214 243 267 11 22 44 39 56 37 327 307 297 306 300 281 268 258 227 218 205 208 219 262
131 133 142 157 166 160 156 154 154 160 163 168 179 181 182 175 170 179 189 191 212 225 240 267 352 7 354 348 351 289 291 306 297 289 278 267 288 273 229 226 213 203 214
124 129 141 155 161 148 148 154 158 161 169 180 185 192 191 170 159 172 185 201 225 212 226 236 260 312 336 325 310 318 321 330 313 318 328 312 296 279 265 249 236 216 214
138 144 152 155 151 152 156 164 166 169 179 186 182 189 190 161 163 168 174 192 218 219 216 214 274 291 286 281 282 297 311 304 298 312 295 283 281 270 278 316 335 330 317
165 160 159 162 157 156 161 165 173 183 187 189 188 190 184 153 141 158 177 179 182 204 212 239 271 286 281 264 256 265 252 234 233 249 268 282 310 345 351 314 291 300 315
187 174 174 158 149 145 144 165 180 181 170 174 190 184 176 189 172 150 159 182 184 218 236 239 253 251 264 274 257 237 247 309 301 292 294 302 317 333 309 276 180 124 216
205 186 171 162 162 160 152 118 92 161 141 143 153 169 179 174 164 162 170 189 244 254 211 224 228 220 222 241 250 259 262 253 265 278 273 262 262 268 281 305 133 174 238
225 202 182 181 181 182 181 174 171 152 145 159 188 195 192 181 170 176 197 223 254 234 219 232 230 222 218 218 228 234 236 238 251 284 282 263 246 242 244 248 220 189 256
236 213 205 199 196 197 195 190 187 185 182 197 205 200 193 191 191 189 186 146 236 226 226 232 231 224 216 213 219 239 242 243 255 273 295 288 258 234 215 215 195 180 224
239 220 208 206 198 200 197 189 190 195 194 186 170 183 186 185 191 201 186 190 202 221 233 232 226 222 223 216 212 226 231 239 274 290 291 287 267 210 214 228 203 266 232
235 233 229 221 210 197 193 192 194 198 199 195 194 191 174 167 185 198 201 214 223 223 220 219 222 223 219 210 203 205 215 227 242 254 280 297 279 205 217 222 213 217 235
219 221 231 233 220 204 198 201 202 201 202 204 200 184 171 184 197 199 204 218 228 225 213 211 215 213 210 201 200 208 219 227 226 232 234 249 250 234 246 224 229 230 224
218 224 226 231 228 218 215 206 200 200 198 196 190 183 182 190 206 206 207 216 219 216 200 196 206 202 194 199 204 215 226 232 228 229 225 227 222 215 216 206 209 222 240
227 234 236 242 235 216 219 222 212 203 200 200 192 186 188 200 210 211 213 209 205 202 196 186 189 195 190 178 174 187 217 232 230 223 229 226 218 213 216 210 204 202 211
232 235 232 239 237 225 217 222 222 208 204 205 198 192 192 199 211 212 205 197 196 209 201 192 189 199 201 188 176 190 203 193 198 227 235 232 223 215 210 211 211 206 203
227 236 237 227 226 233 222 216 222 214 206 209 204 199 198 202 205 203 193 185 188 203 210 193 185 193 202 198 189 188 191 187 220 247 243 239 232 221 217 217 208 200 199
241 242 242 237 232 237 229 217 214 218 216 212 204 200 199 199 200 196 189 188 201 213 211 196 194 196 208 208 198 194 194 206 228 231 225 236 233 223 214 211 211 206 201
Height
1505 1507 1509 1510 1511 1513 1514 1515 1516 1516 1517 1517 1517 1518 1518 1518 1519 1520 1520 1521 1521 1522 1522 1522 1522 1522 1522 1523 1523 1523 1524 1524 1523 1523 1524 1523 1523 1523 1523 1523 1522 1522 1521
1503 1505 1506 1508 1509 1511 1511 1512 1513 1514 1515 1515 1515 1516 1516 1517 1517 1518 1518 1519 1519 1520 1520 1520 1520 1521 1521 1521 1521 1521 1521 1521 1522 1521 1521 1521 1521 1520 1520 1520 1520 1519 1519
1500 1502 1504 1505 1507 1508 1509 1510 1510 1511 1512 1513 1513 1514 1514 1515 1515 1516 1516 1517 1518 1518 1518 1519 1519 1519 1519 1519 1518 1518 1519 1519 1519 1519 1518 1518 1518 1518 1517 1517 1517 1517 1516
1497 1499 1501 1502 1504 1505 1506 1507 1508 1509 1509 1510 1511 1512 1513 1513 1513 1514 1515 1515 1516 1516 1516 1517 1517 1516 1516 1516 1516 1516 1516 1516 1516 1516 1516 1516 1515 1515 1515 1514 1513 1514 1513
1494 1496 1498 1500 1501 1502 1504 1505 1505 1506 1507 1508 1509 1510 1511 1511 1511 1512 1512 1513 1514 1514 1514 1515 1514 1514 1514 1514 1514 1513 1513 1513 1513 1513 1513 1512 1512 1511 1511 1511 1510 1510 1510
1491 1493 1495 1497 1498 1499 1501 1502 1503 1503 1504 1505 1506 1507 1508 1508 1509 1510 1510 1511 1511 1511 1512 1512 1512 1511 1511 1511 1511 1511 1511 1510 1510 1510 1509 1509 1508 1508 1508 1507 1507 1506 1506
1489 1490 1492 1493 1495 1496 1498 1498 1499 1500 1501 1502 1503 1504 1505 1506 1507 1507 1508 1508 1508 1509 1509 1509 1509 1508 1508 1508 1508 1508 1507 1507 1507 1507 1506 1505 1505 1505 1504 1504 1503 1503 1502
1487 1488 1489 1490 1492 1493 1494 1495 1497 1498 1498 1499 1500 1501 1502 1503 1504 1504 1505 1506 1506 1506 1506 1506 1505 1505 1505 1504 1504 1504 1503 1503 1503 1503 1503 1502 1502 1502 1501 1501 1500 1500 1500
1484 1485 1486 1487 1488 1490 1491 1492 1493 1494 1495 1496 1497 1498 1499 1499 1500 1501 1502 1502 1502 1503 1503 1503 1502 1502 1501 1501 1501 1500 1500 1500 1500 1500 1500 1499 1499 1498 1498 1498 1497 1497 1496
1481 1482 1483 1485 1485 1487 1488 1489 1490 1491 1492 1493 1494 1495 1495 1496 1496 1497 1498 1498 1498 1499 1499 1499 1499 1499 1498 1498 1497 1497 1496 1496 1496 1496 1496 1496 1495 1495 1495 1495 1494 1494 1493
1478 1479 1480 1482 1482 1483 1484 1485 1487 1488 1489 1489 1490 1491 1492 1492 1493 1493 1494 1494 1494 1495 1495 1495 1495 1495 1495 1494 1494 1493 1493 1493 1493 1493 1492 1492 1492 1492 1492 1491 1491 1491 1491
1476 1476 1477 1478 1480 1480 1481 1482 1483 1484 1485 1486 1486 1487 1488 1489 1489 1489 1490 1490 1491 1491 1491 1491 1491 1491 1491 1491 1490 1490 1490 1490 1490 1489 1489 1488 1488 1488 1488 1488 1488 1488 1488
1473 1473 1474 1475 1476 1477 1478 1479 1480 1481 1481 1482 1483 1483 1484 1485 1485 1486 1486 1487 1487 1487 1487 1487 1487 1487 1487 1487 1487 1487 1486 1486 1486 1485 1485 1485 1485 1485 1485 1485 1485 1485 1486
1470 1471 1472 1472 1473 1474 1475 1476 1477 1477 1478 1479 1479 1480 1481 1481 1482 1482 1482 1483 1483 1483 1483 1483 1484 1484 1483 1483 1483 1483 1483 1483 1482 1482 1482 1482 1482 1482 1482 1482 1481 1481 1482
1468 1469 1469 1470 1470 1471 1472 1473 1474 1474 1475 1475 1476 1476 1477 1477 1478 1479 1479 1479 1479 1480 1479 1479 1479 1480 1479 1479 1479 1479 1479 1479 1479 1479 1479 1479 1479 1479 1479 1479 1479 1479 1479
1465 1466 1466 1467 1468 1468 1469 1470 1470 1471 1472 1472 1473 1474 1473 1474 1475 1475 1476 1476 1476 1476 1476 1475 1476 1476 1476 1476 1476 1476 1476 1476 1476 1476 1476 1476 1476 1476 1476 1476 1476 1476 1476
1462 1462 1463 1464 1464 1465 1466 1466 1466 1468 1469 1469 1469 1470 1470 1471 1471 1471 1472 1472 1473 1473 1473 1472 1472 1472 1472 1473 1473 1473 1473 1473 1473 1473 1473 1473 1473 1473 1473 1473 1473 1473 1473
1459 1459 1459 1460 1461 1461 1462 1462 1463 1464 1464 1464 1465 1466 1467 1467 1467 1468 1468 1468 1468 1469 1469 1469 1469 1469 1469 1470 1470 1470 1470 1470 1470 1470 1470 1470 1470 1470 1470 1471 1471 1471 1471
1455 1455 1455 1456 1457 1457 1458 1458 1459 1459 1460 1460 1461 1462 1463 1463 1463 1464 1464 1464 1464 1465 1465 1465 1465 1466 1466 1466 1467 1467 1467 1467 1467 1467 1467 1467 1467 1467 1468 1468 1468 1469 1469
1451 1451 1452 1452 1453 1453 1454 1454 1455 1455 1456 1457 1457 1458 1458 1459 1459 1459 1460 1461 1461 1461 1462 1462 1462 1462 1463 1463 1463 1464 1464 1464 1464 1464 1464 1464 1464 1465 1465 1466 1466 1467 1467
1447 1447 1448 1448 1449 1449 1449 1450 1451 1451 1452 1453 1453 1454 1454 1455 1455 1455 1456 1457 1457 1458 1458 1459 1459 1459 1459 1460 1460 1460 1460 1461 1461 1461 1461 1462 1462 1462 1463 1463 1464 1465 1465
1443 1443 1444 1444 1445 1445 1445 1446 1447 1447 1448 1448 1449 1450 1451 1451 1452 1452 1453 1453 1454 1454 1455 1455 1455 1455 1456 1456 1456 1457 1457 1457 1457 1458 1458 1458 1459 1459 1460 1461 1461 1462 1462
1439 1439 1440 1440 1441 1441 1442 1442 1443 1443 1443 1444 1445 1445 1446 1447 1448 1449 1449 1450 1450 1451 1451 1451 1451 1451 1452 1452 1452 1453 1453 1453 1454 1454 1455 1455 1456 1457 1457 1458 1458 1459 1460
1435 1435 1435 1436 1436 1437 1437 1438 1438 1439 1439 1440 1441 1442 1442 1443 1444 1445 1445 1446 1446 1447 1447 1447 1447 1447 1447 1448 1448 1449 1449 1450 1450 1451 1451 1452 1452 1453 1454 1454 1455 1456 1457
1431 1431 1431 1432 1432 1433 1434 1434 1434 1435 1436 1436 1437 1438 1438 1439 1440 1441 1441 1442 1443 1443 1443 1443 1443 1443 1444 1444 1444 1444 1445 1446 1446 1447 1448 1448 1449 1450 1451 1451 1452 1453 1454
1427 1427 1428 1428 1428 1429 1430 1430 1430 1431 1432 1432 1433 1434 1434 1435 1436 1437 1437 1438 1439 1439 1439 1439 1439 1439 1440 1440 1440 1440 1441 1442 1442 1443 1444 1445 1446 1446 1447 1448 1449 1450 1451